This demonstration page uses our WeatherBlox Daily Observations layout. Learn more.

Left ArrowRight Arrow

39.08367, -84.50855

Hourly Observations for March 23, 2018

Temp ( °F °C ) Dew Point ( °F °C ) Humidity (%) Winds ( mph kmh ) Pressure ( in mb ) Visibility ( mi km ) Precip ( " mm )
12:53 am 00:53 Clear 29 -1.7 26 -3.3 89 89 Calm 30.32 1027 10 16.0934 0 0
1:53 am 01:53 Clear 27 -2.8 25 -3.9 92 92 Calm 30.33 1027 10 16.0934 0 0
2:53 am 02:53 Clear 27 -2.8 26 -3.3 96 96 Calm 30.33 1027 N/A 0 0
3:53 am 03:53 Clear 26 -3.3 24 -4.4 92 92 Calm 30.32 1027 10 16.0934 0 0
4:53 am 04:53 Partly Cloudy 25 -3.9 24 -4.4 96 96 Calm 30.32 1027 10 16.0934 0 0
5:53 am 05:53 Cloudy 28 -2.2 26 -3.3 92 92 Calm 30.33 1027 10 16.0934 0 0
6:53 am 06:53 Cloudy 28 -2.2 27 -2.8 96 96 Calm 30.34 1027 10 16.0934 0 0
7:53 am 07:53 Partly Cloudy 28 -2.2 27 -2.8 96 96 Calm 30.34 1028 10 16.0934 0 0
8:53 am 08:53 Sunny 31 -0.6 30 -1.1 96 96 Calm 30.35 1028 9 14.48406 0 0
9:53 am 09:53 Sunny 38 3.3 27 -2.8 65 65 Calm 30.34 1028 10 16.0934 0 0
10:53 am 10:53 Sunny 42 5.6 19 -7.2 40 40 NNW 9 15 30.34 1027 10 16.0934 0 0
11:53 am 11:53 Sunny 45 7.2 20 -6.7 37 37 N 9 15 30.34 1027 10 16.0934 0 0
12:53 pm 12:53 Sunny 47 8.3 21 -6.1 36 36 VRB 5 7 30.32 1027 10 16.0934 0 0
1:53 pm 13:53 Sunny 49 9.4 21 -6.1 33 33 N 12 19 30.31 1026 10 16.0934 0 0
2:53 pm 14:53 Sunny 50 10 23 -5 35 35 VRB 7 11 30.29 1026 10 16.0934 0 0
3:53 pm 15:53 Sunny 50 10 23 -5 35 35 W 12 19 30.28 1025 10 16.0934 0 0
4:53 pm 16:53 Sunny 50 10 22 -5.6 33 33 NW 12 19 30.27 1025 10 16.0934 0 0
5:53 pm 17:53 Sunny 49 9.4 20 -6.7 32 32 NNW 5 7 30.27 1025 10 16.0934 0 0
6:53 pm 18:53 Sunny 46 7.8 19 -7.2 34 34 NNE 8 13 30.26 1025 10 16.0934 0 0
7:53 pm 19:53 Clear 44 6.7 16 -8.9 32 32 N 6 9 30.26 1025 10 16.0934 0 0
8:53 pm 20:53 Clear 40 4.4 20 -6.7 45 45 NE 6 9 30.27 1025 10 16.0934 0 0
9:53 pm 21:53 Clear 38 3.3 23 -5 55 55 NNE 5 7 30.28 1025 10 16.0934 0 0
10:53 pm 22:53 Clear 33 0.6 24 -4.4 70 70 NE 5 7 30.28 1026 10 16.0934 0 0
11:53 pm 23:53 Clear 34 1.1 28 -2.2 79 79 Calm 30.28 1025 10 16.0934 0 0

Powered by AerisWeather